loading
|

WESTFORD NEEDLES, 2949

Orbit data source: Space-Track

WESTFORD NEEDLES, 2949 is space debris originally from a launch on Thu, 09 May 1963 UTC launched from the Air Force Western Test Range (AFWTR). Debris objects in space refer to the collection of defunct objects orbiting the Earth. Examples of debris include non-operational satellites, rocket bodies, and fragments generated from explosions, collisions, or faulty payload assembly.

Loading next visibility...
Loading greatness...
WESTFORD NEEDLES details
Identifier
2949, 1963-014AS
Orbit
Active
Last TLE update10 hours ago
Origin
Flag of USUSAF SSD (US)
ManufacturerUnknown
MissionSpacecraft
Bus & MotorUnknown bus, Unknown motor
MassUnknown
Launch date (UTC)
1963-05-09 (61 years ago)
Launch vehicleUnknown
Launch site
Air Force Western Test Range (AFWTR)
Object type
Payload
Rocket body
Debris
Shape & HBRUnknown
Radar Cross SectionMedium (>0.1 m² and <1 m²)

Expand to show TLE details & history

TLE from 10 hours ago
0 WESTFORD NEEDLES
1 02949U 63014AS  24284.53793144  .00000759  00000-0  28203-1 0  9991
2 02949  85.6656 113.0995 2102777  86.4446 341.0793  8.82484902341479
Epoch: 2024-10-10T12:54Z
Definitive object data (Epoch: 2024-10-10T12:54:37.276Z)
Latitude57.06234°
Longitude-93.49194°
Altitude1,618.926 km
Speed7.717 km/s
True Right ascension07h 59m 08s
True Declination56° 55' 20"
Sunlit
Object was in daylight at TLE epoch
Predictive object data (real-time)
Latitude-43.04816°
Longitude-104.29766°
Altitude4,533.857 km
Speed5.729 km/s
Apparent Right ascension06h 34m 32s
Apparent Declination-42° 31' 28"
Sunlit
Object is in daylight
Predictive observer data (real-time)
Local Sidereal Time17:26:29
Azimuth252.932° W
Elevation-76.965°
Doppler factor1
Orbital elements
Apogee5,590.54 km
Perigee1,431.584 km
Semi-major axis9,889.199 km
Eccentricity0.2102777
Inclination85.6656°
RAAN113.0995°
Arg. of periapsis86.4446°
True anomaly330.78336°
Mean anomaly341.0793°
Eccentric anomaly336.22152°
Mean motion2.207 °/min
BSTAR0.028203
Period163.12 mins
No data available

WESTFORD NEEDLES Visibility forecast

Observer location: 39.9160978°, -105.1181434

WESTFORD NEEDLES is not visible in the next 10 days
Span
Click to sort rows by Start time (UTC) header in descending order
Start Az.
Max El. time (UTC)
Max El. Az.
Max El.
End time (UTC)
End Az.